Tracking 28794 objects as of 19-Apr-2024
HD Live streaming from Space Station
objects crossing your sky now

SL-19 R/B

Track SL-19 R/B now!
10-day predictions


NORAD ID: 29269
Int'l Code: 2006-031B
Perigee: 497.7 km
Apogee: 659.0 km
Inclination: 98.2 °
Period: 96.1 minutes
Semi major axis: 6949 km
RCS: 5.373 m2 (large)
Launch date: July 28, 2006
Source: Commonwealth of Independent States (former USSR) (CIS)
Launch site: PLESETSK MISSILE AND SPACE COMPLEX (PKMTR)

Note: This is a ROCKET BODY
Your satellite tracking list
Your tracking list is empty




NASA's NSSDC Master Catalog

Two Line Element Set (TLE):
1 29269U 06031B   24110.40067137  .00004327  00000-0  31923-3 0  9991
2 29269  98.1936  43.6794 0116036 255.3571 103.4762 14.98601662965606
Source of the keplerian elements: AFSPC